Content
SEND FEEDBACK

Daily
Averages
Monthly
Summary
United States of America

ANN ARBOR, MICHIGAN


Home > North America > United States > Michigan
Elevation: 231 meters     Latitude: 42 17N     Longitude: 083 43W

WEATHER
 
SELECT A DAY
Number of Records: 203,899;   Date Range: 1/1/95 - 8/28/14
 
SHARE

PRINT THIS DATA

[ ← Previous Day ]
WEATHER ALMANAC - 5 MARCH, 2013
[ Next Day → ]
[ °F ]   °C
Weather ElementAverageHighLow
Temperature-2.4 °C1.1 °C (2:53 pm)-6.7 °C (6:53 am)
Dewpoint-6.1 °C-3.9 °C (7:53 pm)-8.3 °C (2:53 am)
Humidity76.6 %92 % (6:53 am)61 % (2:53 pm)
Barometer1014.9 hPa1020 hPa (2:53 am)1010.5 hPa (7:53 pm)
Wind Speed15.9 km/h24.1 km/h (11:53 pm)
Wind Gust38.9 km/h (9:53 pm)
Weather ElementAverage
Visibility15.4 km
Wind DirectionENE (79.2 °)

Weather ElementTotal
Precipitation---
Heating Degree Days21.2 (Base 18.3)
Averaged from 25 records on 5 March, 2013
WEATHER CONDITIONS BREAKOUT
WIND DIRECTION BREAKOUT
WEATHER BY HOUR - 5 MARCH, 2013
[ °F ]   °C
Local TimeTemperatureDewpointHumidityBarometerVisibilityWind DirectionWind SpeedGust SpeedPrecipitationEventsConditions
2:53 AM-5.6 °C-8.3 °C82 %1020 hPa16.1 kmENE (70°)9.3 km/hClear
3:53 AM-6.1 °C-8.3 °C85 %1019.3 hPa16.1 kmENE (60°)7.4 km/hClear
4:53 AM-6.1 °C-8.3 °C85 %1019 hPa14.5 kmENE (70°)9.3 km/hClear
5:53 AM-6.1 °C-7.8 °C88 %1018.6 hPa14.5 kmENE (70°)11.1 km/hClear
6:53 AM-6.7 °C-7.8 °C92 %1018.6 hPa9.7 kmENE (70°)11.1 km/hClear
7:12 AM-6 °C-8 °C86 %1017.3 hPa8 kmEast (80°)9.3 km/hMostly Cloudy
8:48 AM-4 °C-7 °C80 %1017.3 hPa16.1 kmEast (90°)16.7 km/hOvercast
8:53 AM-4.4 °C-7.2 °C81 %1018.6 hPa16.1 kmEast (100°)9.3 km/hOvercast
9:53 AM-3.3 °C-6.1 °C81 %1017.9 hPa16.1 kmESE (120°)11.1 km/hOvercast
10:12 AM-3 °C-6 °C80 %1016.6 hPa16.1 kmESE (120°)16.7 km/hMostly Cloudy
10:53 AM-1.7 °C-6.1 °C72 %1017.3 hPa16.1 kmESE (110°)18.5 km/hMostly Cloudy
11:07 AM-2 °C-6 °C74 %1015.9 hPa16.1 kmEast (100°)14.8 km/hScattered Clouds
11:53 AM-0.6 °C-6.1 °C67 %1015.9 hPa16.1 kmEast (90°)22.2 km/h29.6 km/hPartly Cloudy
12:53 PM0 °C-5 °C69 %1015.6 hPa16.1 kmEast (90°)18.5 km/h29.6 km/hClear
1:53 PM0.6 °C-5 °C66 %1013.9 hPa16.1 kmESE (110°)18.5 km/hClear
2:53 PM1.1 °C-5.6 °C61 %1012.9 hPa16.1 kmEast (80°)22.2 km/h33.3 km/hMostly Cloudy
3:53 PM1.1 °C-5.6 °C61 %1011.9 hPa16.1 kmEast (80°)14.8 km/h29.6 km/hPartly Cloudy
4:53 PM0.6 °C-4.4 °C70 %1011.2 hPa16.1 kmESE (110°)22.2 km/h33.3 km/hClear
5:53 PM0 °C-4.4 °C73 %1011.2 hPa16.1 kmEast (100°)14.8 km/hMostly Cloudy
6:53 PM0 °C-4.4 °C73 %1010.8 hPa16.1 kmENE (70°)16.7 km/h33.3 km/hOvercast
7:53 PM0 °C-3.9 °C75 %1010.5 hPa16.1 kmENE (60°)16.7 km/hOvercast
8:53 PM-1.1 °C-4.4 °C79 %1010.5 hPa16.1 kmNE (40°)16.7 km/h33.3 km/hOvercast
9:53 PM-1.7 °C-5 °C78 %1010.8 hPa16.1 kmNNE (30°)22.2 km/h38.9 km/hOvercast
10:53 PM-2.2 °C-5.6 °C78 %1010.8 hPa16.1 kmNNE (30°)22.2 km/hClear
11:53 PM-2.2 °C-5.6 °C78 %1010.8 hPa16.1 kmNNE (30°)24.1 km/hPartly Cloudy
Hourly data recorded from KARB, located 0 kilometers away from Ann Arbor, Michigan







STORIES FROM OUR PARTNERS